Weather History for Panama City Tyndall AFB, FL

Change the Weather History Date:

Sunday, November 11, 2012

  Actual Average Record
Temperature  
Mean Temperature 64 °F -  
Max Temperature 77 °F 71 °F 82 °F (2002)
Min Temperature 51 °F 52 °F 35 °F (2011)
Degree Days  
Heating Degree Days 1    
Growing Degree Days 14 (Base 50)    
Moisture  
Dew Point 56 °F    
Average Humidity 79    
Maximum Humidity 99    
Minimum Humidity 57    
Precipitation  
Precipitation 0.00 in - - ()
Sea Level Pressure  
Sea Level Pressure 30.27 in    
Wind  
Wind Speed 8 mph (East)    
Max Wind Speed 17 mph    
Max Gust Speed 26 mph    
Visibility 9 miles    
Events      
Averages and records for this station are not official NWS values.
T = Trace of Precipitation, MM = Missing Value Source: NWS Daily Summary

Daily Weather History Graph

Daily Weather History Graph

Search for Another Location

Airport:

Trip Planner

Search our weather history database for the weather conditions in past years. The results will help you decide how hot, cold, wet, or windy it might be!

Date:

Astronomy

Nov. 11, 2012 Rise Set
Actual Time 6:04 AM CST 4:47 PM CST
Civil Twilight 5:39 AM CST 5:13 PM CST
Nautical Twilight 5:10 AM CST 5:41 PM CST
Astronomical Twilight 4:42 AM CST 6:10 PM CST
Moon 3:26 AM CST (11/11) 3:04 PM CST (11/11)
Length of Visible Light 11h 33m
Length of Day
10h 43m
Waning Crescent, 7% of the Moon is Illuminated
Nov 11
Waning Crescent
Nov 13
New
Nov 20
First Quarter
Nov 28
Full
Dec 6
Last Quarter

Hourly Weather History & Observations

Time (CST) Temp. Dew Point Humidity Pressure Visibility Wind Dir Wind Speed Gust Speed Precip Events Conditions
12:55 AM 53.8 °F 48.6 °F 82% 30.27 in 10.0 mi East 5.8 mph - N/A   Clear
1:55 AM 53.1 °F 46.9 °F 80% 30.27 in 10.0 mi East 5.8 mph - N/A   Clear
2:55 AM 53.1 °F 45.3 °F 75% 30.27 in 9.0 mi East 8.1 mph - N/A   Clear
3:27 AM 53.6 °F 46.4 °F 77% 30.27 in 8.0 mi East 6.9 mph - N/A   Clear
3:37 AM 53.6 °F 46.4 °F 77% 30.28 in 8.0 mi East 6.9 mph - N/A   Clear
3:55 AM 52.5 °F 47.7 °F 84% 30.28 in 9.0 mi ENE 6.9 mph - N/A   Clear
4:14 AM 51.8 °F 48.2 °F 88% 30.28 in 7.0 mi East 9.2 mph - N/A   Clear
4:23 AM 53.6 °F 50.0 °F 88% 30.28 in 5.0 mi East 8.1 mph - N/A   Clear
4:28 AM 53.6 °F 50.0 °F 88% 30.28 in 4.0 mi East 8.1 mph - N/A   Clear
4:30 AM 53.6 °F 50.0 °F 88% 30.28 in 5.0 mi East 8.1 mph - N/A   Clear
4:55 AM 53.4 °F 51.8 °F 94% 30.27 in 10.0 mi East 8.1 mph - N/A   Clear
5:55 AM 55.2 °F 54.9 °F 99% 30.27 in 10.0 mi East 9.2 mph - N/A   Clear
6:55 AM 55.9 °F 55.8 °F 99% 30.31 in 10.0 mi East 8.1 mph - N/A   Clear
7:55 AM 61.0 °F 59.2 °F 94% 30.32 in 10.0 mi East 5.8 mph - N/A   Clear
8:55 AM 66.7 °F 61.9 °F 84% 30.32 in 10.0 mi East 8.1 mph - N/A   Clear
9:48 AM 69.8 °F 62.6 °F 78% 30.33 in 10.0 mi East 8.1 mph - N/A   Light Drizzle
9:55 AM 71.1 °F 62.4 °F 74% 30.33 in 10.0 mi ESE 10.4 mph - 0.00 in   Light Drizzle
10:55 AM 74.3 °F 63.1 °F 68% 30.31 in 10.0 mi ESE 11.5 mph - 0.00 in   Light Drizzle
11:55 AM 77.0 °F 62.1 °F 60% 30.28 in 10.0 mi ESE 11.5 mph 26.5 mph 0.00 in   Light Drizzle
12:35 PM 77.0 °F 60.8 °F 57% 30.26 in 10.0 mi SSE 11.5 mph - N/A   Clear
12:55 PM 77.0 °F 61.9 °F 59% 30.25 in 10.0 mi SE 13.8 mph 23.0 mph 0.00 in   Clear
1:55 PM 76.8 °F 61.0 °F 58% 30.25 in 10.0 mi SE 17.3 mph 21.9 mph N/A   Clear
2:55 PM 76.1 °F 61.2 °F 60% 30.25 in 10.0 mi SE 13.8 mph - N/A   Clear
3:55 PM 73.8 °F 60.6 °F 63% 30.25 in 10.0 mi ESE 11.5 mph - N/A   Clear
4:17 PM 71.6 °F 60.8 °F 69% 30.25 in 10.0 mi ESE 9.2 mph - N/A   Light Drizzle
4:55 PM 68.9 °F 60.3 °F 74% 30.25 in 10.0 mi ESE 5.8 mph - 0.00 in   Light Drizzle
5:36 PM 68.0 °F 59.0 °F 73% 30.25 in 10.0 mi East 3.5 mph - N/A   Clear
5:55 PM 65.7 °F 59.7 °F 81% 30.26 in 10.0 mi East 3.5 mph - 0.00 in   Clear
6:55 PM 64.8 °F 59.9 °F 84% 30.25 in 10.0 mi East 4.6 mph - N/A   Clear
7:55 PM 63.9 °F 59.5 °F 86% 30.25 in 10.0 mi East 5.8 mph - N/A   Clear
8:55 PM 64.4 °F 59.9 °F 85% 30.25 in 10.0 mi East 4.6 mph - N/A   Clear
9:55 PM 62.2 °F 59.5 °F 91% 30.25 in 10.0 mi East 3.5 mph - N/A   Partly Cloudy
10:55 PM 62.1 °F 59.5 °F 91% 30.25 in 10.0 mi East 3.5 mph - N/A   Mostly Cloudy
11:55 PM 62.4 °F 59.7 °F 91% 30.24 in 10.0 mi ENE 4.6 mph - N/A   Partly Cloudy